Weather History for Aberdeen, United Kingdom

Change the Weather History Date:

Sunday, January 6, 2013

  Actual Average Record
Temperature  
Mean Temperature 42 °F -  
Max Temperature 46 °F 42 °F 57 °F (2005)
Min Temperature 37 °F 31 °F 24 °F (2003)
Degree Days  
Heating Degree Days 24    
Moisture  
Dew Point 40 °F    
Average Humidity 86    
Maximum Humidity 93    
Minimum Humidity 66    
Precipitation  
Precipitation 0.00 in 0.10 in - ()
Sea Level Pressure  
Sea Level Pressure 30.25 in    
Wind  
Wind Speed 6 mph ()    
Max Wind Speed 12 mph    
Max Gust Speed -    
Visibility 7.8 miles    
Events Rain    
Averages and records for this station are not official NWS values.
T = Trace of Precipitation, MM = Missing Value Source: Averaged Metar Reports

Daily Weather History Graph

Daily Weather History Graph

Search for Another Location

Airport:

Trip Planner

Search our weather history database for the weather conditions in past years. The results will help you decide how hot, cold, wet, or windy it might be!

Date:

Astronomy

Jan. 06, 2013 Rise Set
Actual Time 8:45 AM GMT 3:44 PM GMT
Civil Twilight 7:57 AM GMT 4:32 PM GMT
Nautical Twilight 7:06 AM GMT 5:22 PM GMT
Astronomical Twilight 6:20 AM GMT 6:09 PM GMT
Moon 2:09 AM GMT (1/6) 11:30 AM GMT (1/6)
Length of Visible Light 8h 35m
Length of Day
6h 58m
Waning Crescent, 35% of the Moon is Illuminated
Jan 6
Waning Crescent
Jan 11
New
Jan 18
First Quarter
Jan 27
Full
Feb 3
Last Quarter

Hourly Weather History & Observations

Time (GMT) Temp. Windchill Dew Point Humidity Pressure Visibility Wind Dir Wind Speed Gust Speed Precip Events Conditions
12:20 AM 46.4 °F 43.5 °F 39.2 °F 76% 30.27 in 6.2 mi WSW 5.8 mph - N/A   Unknown
12:50 AM 44.6 °F 39.7 °F 39.2 °F 81% 30.30 in - WSW 9.2 mph - N/A   Clear
1:20 AM 46.4 °F 41.9 °F 39.2 °F 76% 30.33 in 6.2 mi WNW 9.2 mph - N/A   Unknown
1:50 AM 46.4 °F 42.9 °F 39.2 °F 76% 30.33 in 6.2 mi West 6.9 mph - N/A   Unknown
2:20 AM 44.6 °F 39.7 °F 39.2 °F 81% 30.33 in 6.2 mi NW 9.2 mph - N/A   Unknown
2:50 AM 47 °F - 39 °F 66% 30.33 in 28 mi NNW 5.8 mph - -  
2:50 AM 42.8 °F 38.6 °F 37.4 °F 81% 30.33 in - NNW 6.9 mph - N/A   Clear
3:20 AM 41.0 °F - 37.4 °F 87% 30.33 in 6.2 mi Variable 2.3 mph - N/A   Unknown
3:50 AM 42.8 °F 40.1 °F 37.4 °F 81% 30.33 in 6.2 mi West 4.6 mph - N/A   Unknown
4:20 AM 41.0 °F 34.7 °F 37.4 °F 87% 30.33 in 6.2 mi West 10.4 mph - N/A   Unknown
4:50 AM 44.6 °F 38.8 °F 39.2 °F 81% 30.36 in - WNW 11.5 mph - N/A   Clear
5:20 AM 42.8 °F - 37.4 °F 81% 30.33 in - Calm Calm - N/A   Clear
5:50 AM 40 °F - 36 °F 80% 30.37 in 22 mi ENE 3.5 mph - -  
5:50 AM 41.0 °F - 37.4 °F 87% 30.36 in - Variable 2.3 mph - N/A   Clear
6:20 AM 39.2 °F 35.9 °F 35.6 °F 87% 30.36 in - South 4.6 mph - N/A   Clear
6:50 AM 39.2 °F 35.9 °F 35.6 °F 87% 30.36 in - SSE 4.6 mph - N/A   Clear
7:20 AM 41.0 °F 38.0 °F 37.4 °F 87% 30.36 in - ESE 4.6 mph - N/A   Clear
7:50 AM 39.2 °F - 35.6 °F 87% 30.36 in - West 2.3 mph - N/A   Clear
8:20 AM 37.4 °F 34.9 °F 35.6 °F 93% 30.33 in - Variable 3.5 mph - N/A   Clear
8:50 AM 39 °F - 37 °F 88% 30.35 in 22 mi NNE 2.3 mph - -   Overcast
8:50 AM 37.4 °F - 35.6 °F 93% 30.33 in - Variable 2.3 mph - N/A   Clear
9:20 AM 37.4 °F 34.9 °F 35.6 °F 93% 30.36 in - Variable 3.5 mph - N/A   Clear
9:50 AM 37.4 °F 34.9 °F 35.6 °F 93% 30.33 in - SSE 3.5 mph - N/A   Clear
10:20 AM 39.2 °F 35.0 °F 37.4 °F 93% 30.33 in - SSE 5.8 mph - N/A   Clear
10:50 AM 41.0 °F 38.0 °F 37.4 °F 87% 30.30 in - South 4.6 mph - N/A   Clear
11:20 AM 42.8 °F 40.1 °F 37.4 °F 81% 30.30 in - SSE 4.6 mph - N/A   Clear
11:50 AM 42.8 °F 37.5 °F 39.2 °F 87% 30.30 in - SSE 9.2 mph - N/A   Clear
12:20 PM 42.8 °F 37.5 °F 39.2 °F 87% 30.27 in - South 9.2 mph - N/A   Clear
12:50 PM 42.8 °F 36.6 °F 39.2 °F 87% 30.27 in - SSE 11.5 mph - N/A   Clear
1:20 PM 42.8 °F 38.6 °F 39.2 °F 87% 30.24 in - South 6.9 mph - N/A   Clear
1:50 PM 44.6 °F 40.2 °F 41.0 °F 87% 30.24 in 6.2 mi South 8.1 mph - N/A   Partly Cloudy
2:20 PM 44.6 °F 39.7 °F 41.0 °F 87% 30.24 in 6.2 mi South 9.2 mph - N/A Rain Light Rain
2:50 PM 44 °F - 41 °F 86% 30.23 in 14 mi South 10.4 mph - - Rain Rain
2:50 PM 44.6 °F 39.2 °F 41.0 °F 87% 30.21 in 6.2 mi South 10.4 mph - N/A   Mostly Cloudy
3:20 PM 44.6 °F 39.7 °F 41.0 °F 87% 30.21 in 6.2 mi South 9.2 mph - N/A   Mostly Cloudy
3:50 PM 44.6 °F 43.1 °F 41.0 °F 87% 30.21 in 6.2 mi Variable 3.5 mph - N/A   Mostly Cloudy
4:20 PM 44.6 °F 39.7 °F 41.0 °F 87% 30.21 in 6.2 mi SSE 9.2 mph - N/A   Mostly Cloudy
4:50 PM 44.6 °F 40.2 °F 41.0 °F 87% 30.18 in 6.2 mi SSE 8.1 mph - N/A   Mostly Cloudy
5:20 PM 44.6 °F 39.7 °F 41.0 °F 87% 30.15 in 6.2 mi South 9.2 mph - N/A   Scattered Clouds
5:50 PM 45 °F - 42 °F 87% 30.18 in 10 mi South 11.5 mph - - Rain Light Rain Showers
5:50 PM 44.6 °F 40.2 °F 42.8 °F 93% 30.15 in 6.2 mi South 8.1 mph - N/A Rain Light Rain
6:20 PM 44.6 °F 40.2 °F 42.8 °F 93% 30.15 in - SSE 8.1 mph - N/A   Clear
6:50 PM 44.6 °F 40.2 °F 42.8 °F 93% 30.15 in - SE 8.1 mph - N/A   Clear
7:20 PM 46.4 °F 43.5 °F 42.8 °F 87% 30.15 in - SSE 5.8 mph - N/A   Clear
7:50 PM 46.4 °F 42.9 °F 42.8 °F 87% 30.15 in - SE 6.9 mph - N/A   Clear
8:20 PM 46.4 °F 43.5 °F 42.8 °F 87% 30.15 in - SSE 5.8 mph - N/A   Clear
8:50 PM 46 °F - 43 °F 84% 30.13 in 18 mi SSE 5.8 mph - -   Overcast
8:50 PM 46.4 °F 43.5 °F 42.8 °F 87% 30.12 in - SE 5.8 mph - N/A   Clear
9:20 PM 46.4 °F 42.9 °F 42.8 °F 87% 30.12 in - SSE 6.9 mph - N/A   Clear
9:50 PM 46.4 °F 44.3 °F 42.8 °F 87% 30.12 in - SE 4.6 mph - N/A   Clear
10:20 PM 46.4 °F 44.3 °F 42.8 °F 87% 30.12 in - SSE 4.6 mph - N/A   Clear
10:50 PM 46.4 °F 43.5 °F 42.8 °F 87% 30.12 in - SE 5.8 mph - N/A   Clear
11:20 PM 46.4 °F 45.2 °F 42.8 °F 87% 30.12 in 6.2 mi Variable 3.5 mph - N/A   Unknown
11:50 PM 44 °F - 43 °F 93% 30.13 in 16 mi SSW 1.2 mph - -   Overcast
11:50 PM 42.8 °F - 41.0 °F 93% 30.12 in - Calm Calm - N/A   Clear